Regional Weather Roundup
Issued by NWS Cleveland, OH

Home | Current Version | Previous Version | Graphics & Text | Print | Product List | Glossary On
Versions: 1 2 3 4 5 6 7 8 9 10 11 12 13 14 15 16 17 18 19 20 21 22 23 24 25 26 27 28 29 30 31 32 33 34 35 36 37 38 39 40 41 42 43 44 45 46 47 48 49 50
000
ASUS41 KCLE 261802
RWRCLE
OHIO REGIONAL WEATHER ROUNDUP
NATIONAL WEATHER SERVICE CLEVELAND, OH
100 PM EST MON JAN 26 2015

NOTE: "FAIR" INDICATES FEW OR NO CLOUDS BELOW 12,000 FEET WITH NO
SIGNIFICANT WEATHER AND/OR OBSTRUCTIONS TO VISIBILITY.

OHZ001>008-015>018-024>027-034-035-043-044-261900-
   NORTHWEST OHIO

CITY           SKY/WX    TMP DP  RH WIND       PRES   REMARKS
DEFIANCE       SUNNY     21  10  62 NW5       29.93F WCI  15
FINDLAY        PTSUNNY   18  10  71 N10       29.89F WCI   6
TOLEDO EXPRESS SUNNY     21  11  65 NW8       29.91F WCI  11
TOLEDO EXEC    SUNNY     21  10  62 N7        29.92F WCI  12
LIMA           SUNNY     17   9  70 N7        29.89S WCI   8
$$

OHZ009>014-019>023-028>033-038-089-261900-
   NORTHEAST OHIO

CITY           SKY/WX    TMP DP  RH WIND       PRES   REMARKS
CLE-HOPKINS    CLOUDY    21  17  84 N17       29.86F WCI   7
CLE-LAKEFRONT  CLOUDY    23  17  78 N15G24    29.83F WCI  10
CUY CO. ARPT   CLOUDY    23  19  86 NE14      29.82F WCI  11
LORAIN-ELYRIA  CLOUDY    20  16  84 NE16      29.85F FOG     WCI   6
ASHTABULA      CLOUDY    23  16  74 VRB7      29.80F WCI  15
AKRON-CANTON   FLURRIES  24  17  74 N12       29.76F WCI  13
WOOSTER        CLOUDY    22  17  81 N16       29.79F WCI   8
MANSFIELD      CLOUDY    19  14  81 NW13      29.80F WCI   6
YOUNGSTOWN     FLURRIES  22  16  78 N10       29.75F WCI  11
$$

OHZ042-051>053-060>062-070>072-077>081-261900-
  SOUTHWEST OHIO

CITY           SKY/WX    TMP DP  RH WIND       PRES   REMARKS
CINC-COVINGTON PTSUNNY   26  18  71 NW6       29.90F WCI  19
CINC-LUNKEN    PTSUNNY   26  18  71 NW12      29.93F WCI  16
HAMILTON       SUNNY     24  16  71 NW12      29.93F WCI  13
DAYTON         SUNNY     18  11  74 NW13      29.89F WCI   5
WRIGHT-PAT AFB NOT AVBL
DAYTON GENERAL MOSUNNY   20  13  74 NW10      29.88F WCI   9
WILMINGTON     PTSUNNY   22  15  75 W13       29.85F WCI  10
$$

OHZ036-037-039>041-045>050-054>059-063>069-073>076-082>088-261900-
  CENTRAL AND SOUTHEAST OHIO

CITY           SKY/WX    TMP DP  RH WIND       PRES   REMARKS
COLUMBUS       CLOUDY    22  16  78 NW13      29.83F WCI  10
OSU AIRPORT    CLOUDY    18  13  80 N17       29.83F WCI   3
BOLTON FIELD   CLOUDY    19  14  79 NW12      29.84F WCI   7
RICKENBACK AFB NOT AVBL
NEWARK         CLOUDY    27  19  72 NW10      29.80F WCI  17
MARION         CLOUDY    18  12  77 N14       29.85F WCI   4
LANCASTER      CLOUDY    24  19  81 NW13      29.82F WCI  12
ZANESVILLE     LGT SNOW  24  19  81 NW9       29.78F WCI  14
NEW PHILLY     LGT SNOW  24  18  77 NW8       29.78F WCI  15
$$



USA.gov is the U.S. government's official web portal to all federal, state and local government web resources and services.